Location: Newark
(35.2672°N, 80.7344°W)
Time: 04:35:50
(UTC+00:00)

Tiros 1 - Pass Details

Date: 25 January 2020
Orbit: 630 x 664 km, 48.4° (Epoch: 16 February)

Event Time Altitude Azimuth Distance (km) Brightness Sun altitude
Rises 17:26:36 0° 234° (SW) 2,917 10.9 35.7°
Reaches altitude 10° 17:28:54 10° 235° (SW) 2,016 10.2 35.7°
Maximum altitude 17:33:33 82° 323° (NW) 651 7.7 35.8°
Drops below altitude 10° 17:38:17 10° 52° (NE) 2,045 9.5 35.8°
Sets 17:40:38 0° 53° (NE) 2,964 10.2 35.8°
